Location: Central Falls
(41.8900°N, 71.3929°W)
Time: 15:17:59
(UTC+00:00)

Vanguard 1 Rocket - Pass Details

Date: 09 December 2023
Orbit: 654 x 4218 km, 34.3° (Epoch: 24 February)

Event Time Altitude Azimuth Distance (km) Brightness Sun altitude
Rises 14:19:06 0° 280° (W) 6,724 11.4 17.8°
Reaches altitude 10° 14:24:58 10° 272° (W) 5,058 10.9 18.4°
Maximum altitude 14:35:20 29° 219° (SW) 2,550 10.1 19.4°
Drops below altitude 10° 14:41:36 10° 161° (SSE) 2,969 12.1 19.9°
Sets 14:44:05 0° 149° (SSE) 3,632 12.1 20.1°
